Flag for Mexico Weather past 2 weeks in Mexico City, Federal District, Mexico

Now
59 °F

Mostly cloudy.


Feels Like: 57 °F
Forecast: 54 / 68 °F
Wind: 9 mph from Southeast

Location: Mexico City / Licenci

Current Time: Dec 22, 2014 at 10:41:42 PM

Latest Report: Dec 22, 2014 at 9:49 PM


Visibility: 12 mi

Pressure: 30.17 "Hg

Humidity: 51%

Dew point: 41 °F

Location of Mexico CityLocation

Historic Weather in Mexico City — Graph

°F

Mexico City temperature yesterday

Maximum temperature yesterday: 75 °F (at 1:45 PM)
Minimum temperature yesterday: 52 °F (at 7:45 AM)
Average temperature yesterday: 60 °F

Past Weeks' High & Low Weather Summary

 TemperatureHumidityPressure
High75 °F (Dec 18, 2:43 PM)93% (Dec 8, 6:23 AM)30.46 "Hg (Dec 8, 6:23 AM)
Low43 °F (Dec 8, 4:45 AM)15% (Dec 21, 1:45 PM)29.68 "Hg (Dec 19, 2:45 PM)
Average58 °F59%30.22 "Hg
* Reported Dec 7 9:42 PM — Dec 22 7:44 PM, Mexico City, Weather by CustomWeather, © 2014

Note: Actual official high and low records may vary slightly from our data, if they occured in-between our weather recording intervals... More about our weather records

Advertising

Mexico City weather history for previous 24 hours

 ConditionsComfort  
Time TempWeatherWind HumidityBarometerVisibility
7:44 PM
Dec 22
63 °FMostly cloudy.7 mph34%30.15 "Hg12 mi
4:28 PM64 °FSleet. Cloudy.N/A34%30.10 "HgN/A
3:45 PM68 °FMostly cloudy.6 mph26%30.10 "Hg12 mi
1:45 PM68 °FMore clouds than sun.3 mph28%30.16 "Hg8 mi
12:45 PM66 °FMostly cloudy.3 mph30%30.19 "Hg8 mi
11:45 AM64 °FMostly cloudy.5 mph30%29.76 "Hg8 mi
10:45 AM63 °FMostly cloudy.7 mph39%30.26 "Hg8 mi
10:20 AM63 °FMostly cloudy.3 mph39%30.26 "Hg8 mi
9:45 AM61 °FMostly cloudy.3 mph45%30.27 "Hg10 mi
9:20 AM59 °FMostly cloudy.3 mph48%30.26 "Hg10 mi
8:45 AM57 °FOvercast.3 mph48%29.80 "Hg10 mi
8:20 AM57 °FOvercast.3 mph48%30.25 "Hg8 mi
7:48 AM55 °FMostly cloudy.3 mph51%30.24 "Hg8 mi
7:20 AM55 °FPartly sunny.5 mph55%30.24 "Hg8 mi
6:49 AM54 °FPartly cloudy.5 mph63%30.23 "Hg9 mi
6:20 AM54 °FPartly cloudy.3 mph63%30.23 "Hg7 mi
5:49 AM55 °FPartly cloudy.5 mph59%29.75 "Hg7 mi
4:50 AM55 °FMostly cloudy.5 mph59%30.21 "Hg7 mi
3:47 AM55 °FMostly cloudy.No wind59%30.21 "Hg10 mi
2:53 AM57 °FOvercast.No wind55%29.88 "Hg10 mi
1:50 AM57 °FMostly cloudy.3 mph55%30.24 "Hg10 mi
12:42 AM59 °FPassing clouds.6 mph51%30.25 "Hg10 mi
Weather by CustomWeather, © 2014

See weather overviewHow to use our weather pages